Temp
23 22 22 22 22 23 21 21 21 21 21 21 21 21 22 22 23 23 23 23 23 23 24 24 24 25 26 27 28 29 29 30 31 31 32 33 33 33 33 33 33 33
23 22 22 22 22 23 21 21 20 20 21 21 21 22 22 22 23 22 22 22 23 22 23 23 24 24 24 25 26 26 27 28 28 31 30 30 32 33 33 33 33 33
22 22 22 21 21 21 21 21 21 20 20 20 21 21 22 23 22 22 22 22 22 22 22 23 23 23 23 24 25 25 25 26 27 29 29 29 31 32 33 33 33 33
22 22 22 22 21 21 21 20 20 20 20 20 20 21 21 22 22 21 22 21 21 21 22 22 22 22 22 23 24 24 26 26 27 28 28 29 29 30 30 32 33 33
23 22 22 22 22 21 21 21 20 20 19 20 20 19 20 20 20 20 21 20 21 20 21 21 21 21 21 21 21 21 23 24 26 27 27 27 28 29 29 30 29 30
23 23 23 23 22 21 21 20 21 20 19 19 19 19 19 20 19 20 20 19 20 20 19 20 20 20 20 20 20 19 20 21 24 26 26 26 27 29 29 29 29 28
23 23 22 23 22 22 21 21 20 20 20 19 19 18 19 18 19 19 19 19 18 18 18 18 19 18 19 19 18 18 19 20 23 24 24 24 25 26 27 28 28 28
24 24 23 22 22 21 21 20 20 20 19 19 18 19 19 18 18 18 18 18 17 17 18 18 17 17 17 17 16 16 17 21 22 22 22 22 23 23 25 26 27 27
25 24 23 22 21 21 20 21 20 19 19 17 18 18 18 18 17 17 16 16 15 15 16 16 16 15 16 15 14 14 15 17 20 20 20 20 21 22 24 25 26 27
24 24 23 22 21 21 21 20 19 18 18 17 17 16 15 16 16 16 15 14 13 14 13 14 14 14 13 13 13 13 13 14 17 18 19 20 21 22 23 24 23 22
23 23 22 22 21 21 20 20 18 17 17 15 15 14 14 14 13 14 13 13 13 12 13 12 12 12 11 11 12 12 12 13 15 17 18 20 21 22 22 21 21 21
23 23 22 22 22 22 20 19 17 16 16 15 15 14 13 13 13 13 12 12 12 12 11 12 12 11 10 10 10 11 11 12 14 16 19 20 21 21 21 21 20 20
22 21 22 22 22 22 20 18 17 17 17 15 14 12 12 11 11 11 11 11 11 11 10 10 9 8 8 8 8 9 9 10 13 16 18 20 21 20 20 20 20 19
21 21 21 21 21 21 19 17 17 17 16 16 13 11 10 10 9 10 9 10 9 9 10 8 7 7 7 7 7 7 7 9 13 15 17 19 20 19 19 19 18 17
19 19 19 19 19 19 17 16 16 16 16 15 14 13 12 10 10 10 7 7 7 7 7 6 4 3 5 6 6 7 10 12 15 17 18 18 17 17 17 17 17 15
17 16 17 18 17 16 14 15 16 16 15 14 14 12 10 8 7 7 5 2 3 3 2 2 2 2 8 11 14 14 16 17 17 17 16 15 14 14 15 15 13 13
16 18 18 17 15 13 13 14 15 14 13 12 11 11 9 7 6 3 2 3 2 1 -0 -0 0 3 10 17 19 20 20 16 15 15 15 14 14 12 11 12 11 11
20 19 16 13 11 12 12 12 12 12 11 10 8 8 6 3 2 1 1 0 0 -1 -2 -0 -1 8 15 17 19 20 21 14 12 12 11 11 11 11 11 10 8 7
19 16 13 12 12 12 13 12 12 11 8 5 3 1 1 0 1 2 -1 -0 -2 -1 -1 -1 -1 8 14 17 18 20 20 15 11 9 10 8 7 8 9 8 6 4
15 13 11 10 11 11 11 9 7 4 2 1 1 1 1 0 -1 -0 0 -3 -3 -3 -2 -3 -4 6 14 16 18 20 19 15 9 9 8 6 6 7 9 7 5 3
13 12 11 10 10 10 9 8 8 6 5 3 0 1 0 -2 -3 -4 -3 -2 -3 -3 -4 -3 -4 11 14 16 17 19 18 14 5 5 6 8 8 8 7 6 5 5
13 12 10 10 10 10 9 9 7 4 1 0 -0 -2 -3 -3 -3 -3 -4 -4 -1 -2 -4 -3 -4 12 14 15 17 18 17 10 5 6 6 7 6 6 6 5 4 4
12 10 9 8 9 8 6 5 4 -1 -2 -3 -3 -2 -1 -3 -4 -3 -2 -3 -1 0 -1 -0 -3 6 13 14 16 17 14 7 6 6 5 4 4 3 2 2 3 4
11 8 7 7 7 5 4 3 -0 -2 -4 -2 -1 -3 -3 -5 -4 -4 -3 -1 -1 1 1 -0 -1 3 12 14 15 17 14 7 5 3 3 3 2 1 0 -0 1 5
9 8 6 5 2 0 -3 -2 -2 -3 -3 -3 -4 -5 -5 -5 -3 -4 -3 -2 -1 -1 7 6 1 4 10 13 15 15 9 3 2 1 -0 -1 -1 -2 -2 -2 -1 1
6 5 3 0 0 -4 -6 -6 -5 -5 -6 -5 -6 -6 -6 -5 -3 -3 -3 -1 -0 1 3 4 2 1 5 13 14 13 11 2 1 -0 -3 -4 -5 -6 -8 -6 -3 -2
MSLP
1028.89 1028.93 1028.97 1028.97 1028.93 1028.97 1028.93 1028.89 1028.77 1028.73 1028.53 1028.41 1028.29 1028.09 1027.93 1027.65 1027.41 1027.17 1026.93 1026.61 1026.41 1026.17 1025.85 1025.49 1025.13 1024.77 1024.41 1023.97 1023.57 1023.21 1022.81 1022.37 1022.01 1021.57 1021.17 1020.77 1020.49 1020.33 1020.21 1020.13 1020.09 1020.09
1028.65 1028.77 1028.77 1028.81 1028.77 1028.77 1028.73 1028.69 1028.65 1028.53 1028.45 1028.33 1028.21 1028.05 1027.89 1027.65 1027.45 1027.25 1027.05 1026.81 1026.53 1026.29 1025.97 1025.69 1025.37 1025.05 1024.65 1024.25 1023.85 1023.49 1023.05 1022.61 1022.29 1021.85 1021.65 1021.21 1020.65 1020.25 1020.01 1019.85 1019.81 1019.77
1028.41 1028.49 1028.45 1028.45 1028.49 1028.49 1028.41 1028.41 1028.37 1028.33 1028.25 1028.13 1028.05 1027.97 1027.77 1027.57 1027.45 1027.29 1027.13 1026.93 1026.73 1026.45 1026.13 1025.85 1025.57 1025.25 1024.97 1024.61 1024.13 1023.69 1023.33 1022.89 1022.53 1022.05 1021.77 1021.49 1021.01 1020.53 1020.01 1019.73 1019.61 1019.53
1028.13 1028.13 1028.09 1028.13 1028.17 1028.13 1028.09 1028.13 1028.05 1028.05 1027.97 1027.93 1027.85 1027.77 1027.69 1027.53 1027.37 1027.25 1027.09 1026.97 1026.81 1026.61 1026.33 1026.05 1025.77 1025.45 1025.17 1024.85 1024.53 1024.05 1023.53 1023.09 1022.77 1022.33 1021.89 1021.45 1021.17 1020.81 1020.49 1019.97 1019.49 1019.21
1027.81 1027.77 1027.77 1027.77 1027.77 1027.73 1027.73 1027.77 1027.73 1027.73 1027.69 1027.65 1027.65 1027.57 1027.49 1027.37 1027.29 1027.21 1027.05 1026.97 1026.81 1026.65 1026.45 1026.21 1025.89 1025.65 1025.37 1025.13 1024.81 1024.49 1023.97 1023.49 1022.93 1022.45 1022.05 1021.61 1021.17 1020.89 1020.57 1020.21 1019.93 1019.45
1027.53 1027.49 1027.41 1027.37 1027.33 1027.37 1027.37 1027.37 1027.37 1027.45 1027.45 1027.41 1027.41 1027.41 1027.29 1027.21 1027.17 1027.09 1027.05 1026.97 1026.81 1026.69 1026.49 1026.25 1026.05 1025.81 1025.57 1025.33 1025.05 1024.81 1024.41 1023.89 1023.25 1022.65 1022.21 1021.77 1021.25 1020.93 1020.61 1020.25 1019.97 1019.65
1027.09 1027.09 1027.05 1026.97 1027.01 1027.01 1027.05 1027.01 1027.05 1027.13 1027.17 1027.17 1027.17 1027.17 1027.05 1027.05 1026.93 1026.93 1026.93 1026.93 1026.81 1026.69 1026.53 1026.33 1026.13 1025.97 1025.77 1025.57 1025.29 1024.97 1024.57 1024.01 1023.37 1022.93 1022.57 1022.21 1021.77 1021.29 1020.81 1020.41 1020.05 1019.69
1026.65 1026.65 1026.61 1026.61 1026.65 1026.69 1026.73 1026.77 1026.81 1026.85 1026.89 1026.97 1027.01 1026.89 1026.89 1026.85 1026.77 1026.77 1026.77 1026.77 1026.77 1026.65 1026.53 1026.41 1026.29 1026.09 1025.97 1025.77 1025.61 1025.17 1024.69 1024.05 1023.57 1023.17 1022.89 1022.49 1022.05 1021.65 1021.09 1020.57 1020.13 1019.73
1026.25 1026.29 1026.25 1026.29 1026.29 1026.25 1026.33 1026.37 1026.45 1026.53 1026.65 1026.81 1026.77 1026.77 1026.69 1026.65 1026.61 1026.61 1026.61 1026.65 1026.65 1026.57 1026.49 1026.45 1026.33 1026.25 1026.09 1025.97 1025.77 1025.45 1025.01 1024.45 1023.89 1023.45 1023.13 1022.69 1022.17 1021.65 1021.13 1020.61 1020.13 1019.69
1025.89 1025.85 1025.89 1025.89 1025.93 1025.85 1025.93 1025.97 1026.13 1026.25 1026.41 1026.53 1026.53 1026.57 1026.57 1026.53 1026.53 1026.45 1026.45 1026.53 1026.53 1026.45 1026.41 1026.37 1026.33 1026.25 1026.13 1026.05 1025.85 1025.53 1025.17 1024.73 1024.13 1023.61 1023.17 1022.65 1022.21 1021.65 1021.05 1020.65 1020.49 1020.29
1025.49 1025.49 1025.57 1025.57 1025.53 1025.57 1025.57 1025.65 1025.85 1026.05 1026.17 1026.33 1026.37 1026.37 1026.37 1026.41 1026.41 1026.33 1026.33 1026.37 1026.45 1026.41 1026.29 1026.25 1026.21 1026.17 1026.13 1026.01 1025.77 1025.49 1025.17 1024.81 1024.25 1023.65 1023.13 1022.65 1022.05 1021.65 1021.33 1021.17 1020.89 1020.65
1025.05 1025.13 1025.21 1025.21 1025.17 1025.21 1025.29 1025.33 1025.57 1025.81 1025.93 1026.05 1026.09 1026.13 1026.21 1026.29 1026.29 1026.25 1026.25 1026.29 1026.33 1026.33 1026.25 1026.17 1026.09 1026.13 1026.13 1025.97 1025.69 1025.41 1025.13 1024.69 1024.17 1023.61 1023.01 1022.49 1021.97 1021.81 1021.69 1021.45 1021.25 1020.97
1024.73 1024.81 1024.85 1024.85 1024.85 1024.89 1024.97 1025.17 1025.33 1025.45 1025.61 1025.73 1025.85 1026.01 1026.09 1026.17 1026.21 1026.21 1026.21 1026.21 1026.25 1026.25 1026.21 1026.05 1025.97 1026.05 1026.05 1025.85 1025.61 1025.33 1025.01 1024.61 1024.09 1023.53 1022.97 1022.41 1021.97 1021.89 1021.77 1021.65 1021.45 1021.29
1024.53 1024.49 1024.57 1024.61 1024.65 1024.69 1024.77 1025.01 1025.17 1025.29 1025.45 1025.65 1025.85 1025.93 1026.01 1026.09 1026.13 1026.13 1026.17 1026.21 1026.25 1026.25 1026.13 1025.97 1025.89 1025.93 1025.89 1025.69 1025.49 1025.21 1024.85 1024.41 1023.81 1023.29 1022.85 1022.33 1022.05 1022.01 1021.93 1021.81 1021.77 1021.81
1024.41 1024.45 1024.49 1024.49 1024.49 1024.49 1024.61 1024.85 1025.17 1025.41 1025.65 1025.77 1025.89 1025.93 1026.01 1026.05 1026.09 1026.13 1026.13 1026.17 1026.21 1026.21 1026.09 1025.89 1025.77 1025.81 1025.77 1025.57 1025.37 1024.89 1024.29 1023.77 1023.17 1022.73 1022.29 1022.05 1022.17 1022.21 1022.13 1022.05 1022.09 1022.17
1024.45 1024.49 1024.49 1024.41 1024.41 1024.41 1024.69 1025.09 1025.33 1025.57 1025.73 1025.85 1025.89 1025.93 1026.01 1026.01 1026.05 1026.09 1026.09 1026.09 1026.13 1026.13 1026.01 1025.77 1025.65 1025.65 1025.53 1025.17 1024.65 1024.17 1023.49 1022.93 1022.69 1022.57 1022.49 1022.41 1022.37 1022.45 1022.37 1022.41 1022.61 1022.61
1024.57 1024.45 1024.33 1024.21 1024.21 1024.53 1024.85 1025.09 1025.41 1025.65 1025.81 1025.89 1025.93 1025.97 1025.97 1025.97 1026.01 1026.01 1025.97 1026.01 1026.09 1026.01 1025.81 1025.61 1025.53 1025.45 1025.17 1024.49 1023.93 1023.37 1022.77 1022.89 1022.81 1022.69 1022.69 1022.69 1022.69 1022.65 1022.69 1022.81 1023.05 1023.09
1024.49 1024.29 1024.13 1024.17 1024.41 1024.69 1025.05 1025.37 1025.53 1025.65 1025.69 1025.77 1025.85 1025.85 1025.89 1025.97 1025.93 1025.85 1025.89 1025.93 1025.93 1025.81 1025.65 1025.45 1025.37 1025.21 1024.65 1024.21 1023.69 1023.09 1022.61 1022.93 1022.89 1022.77 1022.81 1022.81 1022.85 1022.85 1022.85 1023.09 1023.33 1023.41
1024.41 1024.25 1024.21 1024.41 1024.73 1024.97 1025.13 1025.33 1025.45 1025.57 1025.65 1025.73 1025.77 1025.81 1025.89 1025.81 1025.77 1025.85 1025.81 1025.77 1025.73 1025.65 1025.49 1025.29 1025.25 1025.05 1024.53 1024.05 1023.53 1022.97 1022.65 1022.97 1023.01 1022.89 1022.85 1022.85 1022.89 1022.93 1023.01 1023.33 1023.57 1023.65
1024.37 1024.25 1024.45 1024.81 1025.05 1025.21 1025.37 1025.49 1025.61 1025.61 1025.69 1025.81 1025.81 1025.81 1025.77 1025.73 1025.77 1025.73 1025.69 1025.69 1025.65 1025.53 1025.33 1025.17 1025.13 1024.93 1024.37 1023.93 1023.41 1022.93 1022.61 1022.97 1023.17 1023.05 1022.97 1022.97 1023.09 1023.09 1023.13 1023.57 1023.81 1023.85
1024.69 1024.89 1025.21 1025.49 1025.57 1025.61 1025.61 1025.57 1025.53 1025.57 1025.65 1025.69 1025.77 1025.77 1025.73 1025.73 1025.69 1025.69 1025.65 1025.61 1025.53 1025.41 1025.25 1025.05 1025.01 1024.69 1024.17 1023.85 1023.45 1022.89 1022.73 1023.01 1023.17 1023.13 1023.09 1023.25 1023.33 1023.45 1023.81 1024.05 1024.13 1024.09
1025.09 1025.25 1025.37 1025.49 1025.53 1025.53 1025.53 1025.49 1025.53 1025.65 1025.73 1025.81 1025.85 1025.85 1025.85 1025.85 1025.77 1025.77 1025.61 1025.53 1025.41 1025.29 1025.17 1024.97 1024.93 1024.49 1024.13 1023.81 1023.41 1022.89 1022.85 1023.01 1023.13 1023.29 1023.53 1023.77 1023.93 1024.09 1024.29 1024.45 1024.45 1024.37
1025.49 1025.49 1025.53 1025.53 1025.49 1025.49 1025.45 1025.49 1025.61 1025.81 1025.93 1025.97 1025.93 1025.89 1025.85 1025.81 1025.77 1025.69 1025.57 1025.49 1025.33 1025.13 1025.01 1024.93 1024.85 1024.61 1024.17 1023.81 1023.37 1022.89 1022.93 1023.17 1023.41 1023.61 1023.97 1024.25 1024.53 1024.77 1024.89 1024.89 1024.69 1024.57
1025.57 1025.57 1025.57 1025.53 1025.49 1025.49 1025.53 1025.73 1025.93 1026.05 1026.01 1025.97 1025.97 1025.89 1025.85 1025.77 1025.77 1025.65 1025.53 1025.41 1025.21 1025.01 1024.85 1024.85 1024.77 1024.69 1024.25 1023.81 1023.37 1022.85 1022.81 1023.37 1023.77 1023.89 1024.21 1024.53 1024.93 1025.21 1025.33 1025.29 1025.09 1024.77
1025.65 1025.65 1025.61 1025.57 1025.61 1025.69 1025.89 1025.93 1026.01 1026.09 1026.09 1026.09 1026.01 1025.93 1025.81 1025.81 1025.73 1025.65 1025.53 1025.33 1025.17 1025.09 1024.77 1024.65 1024.73 1024.69 1024.37 1023.85 1023.33 1022.97 1023.41 1023.85 1024.05 1024.33 1024.77 1025.17 1025.45 1025.65 1025.69 1025.61 1025.41 1025.13
1025.77 1025.73 1025.69 1025.73 1025.81 1026.01 1026.21 1026.21 1026.29 1026.29 1026.17 1026.09 1025.97 1025.93 1025.85 1025.77 1025.73 1025.65 1025.49 1025.33 1025.17 1025.09 1024.97 1024.69 1024.73 1024.73 1024.49 1023.85 1023.33 1023.17 1023.53 1024.17 1024.45 1024.69 1025.17 1025.57 1025.85 1025.93 1025.97 1025.85 1025.69 1025.49
Wind_Speed
1 1 2 2 3 2 3 3 4 3 4 5 6 6 6 6 8 7 9 9 9 9 10 11 11 11 10 11 11 11 10 10 9 9 9 7 8 8 9 9 9 9
2 1 2 1 2 2 1 1 2 3 3 4 4 5 5 6 6 5 8 8 9 10 10 10 10 10 11 10 10 10 9 10 10 8 9 11 8 8 9 10 10 9
3 2 2 2 3 3 2 2 1 2 2 3 3 4 5 5 6 5 6 7 8 9 10 9 10 10 10 10 11 10 8 10 10 10 9 9 9 9 8 8 8 10
4 4 4 3 4 4 3 2 2 2 2 3 3 3 4 5 5 6 5 6 6 8 9 9 9 9 10 10 11 10 11 9 9 10 9 8 7 7 8 7 7 8
5 5 4 5 5 5 4 4 4 3 2 1 1 2 3 4 5 5 6 6 6 6 7 9 9 9 9 9 10 10 10 10 10 10 9 8 7 7 7 6 7 7
5 5 6 5 6 6 5 5 4 4 3 1 1 2 2 2 3 4 5 6 6 7 8 7 8 8 9 9 9 9 9 10 10 11 10 9 9 8 6 7 7 7
7 6 7 7 6 6 6 6 5 4 3 3 2 2 1 2 2 3 3 5 7 7 8 8 8 8 8 9 9 10 9 9 10 10 11 9 10 11 9 8 7 8
8 7 7 6 6 6 7 6 5 5 4 3 2 3 1 2 1 1 2 4 5 6 7 7 7 8 8 7 9 10 11 9 10 11 11 11 10 10 10 8 8 7
8 7 7 7 7 7 7 7 6 5 4 4 3 2 2 2 1 1 2 3 3 4 5 6 7 7 6 7 7 9 10 10 11 11 12 12 11 11 10 10 8 6
8 8 7 8 7 7 7 7 6 5 4 4 3 2 2 2 0 1 1 2 3 3 4 4 6 6 6 6 8 8 8 10 11 10 10 10 10 11 10 6 5 5
9 8 8 8 8 7 7 6 6 5 4 4 3 3 3 2 1 1 1 1 3 3 4 4 5 6 7 7 8 8 8 8 9 10 9 10 9 7 7 6 6 5
9 8 8 9 9 7 7 7 6 5 5 4 4 3 2 2 1 1 1 2 2 3 3 4 4 4 6 8 8 8 8 8 8 8 9 9 8 4 6 5 5 5
7 7 8 8 7 7 7 6 6 6 6 5 3 2 2 2 1 1 1 1 2 2 3 3 3 4 6 7 8 8 7 8 9 8 9 9 5 2 3 5 5 6
6 6 6 6 6 6 6 6 6 5 4 2 2 1 1 1 1 1 2 1 3 3 4 2 2 3 5 7 7 8 8 9 9 9 8 9 3 2 3 4 6 7
4 4 4 4 6 6 5 5 4 3 3 2 2 1 1 1 1 1 2 3 3 4 4 2 1 3 4 5 7 9 9 9 10 10 9 4 1 2 3 4 5 6
4 4 4 5 5 5 2 3 4 3 3 2 2 2 1 1 1 1 1 3 4 4 4 2 2 3 7 14 14 10 11 9 3 3 4 3 3 2 2 5 6 5
4 5 5 6 3 2 5 5 4 3 2 2 1 1 2 2 1 2 2 3 4 4 4 3 3 4 11 16 15 16 10 1 1 1 2 2 2 2 2 4 5 5
7 7 5 2 2 3 4 4 3 2 1 1 1 2 2 1 1 2 3 4 3 3 4 4 3 7 14 13 14 14 10 2 2 1 2 2 1 2 2 4 4 4
8 4 1 2 3 5 4 3 2 1 2 2 3 3 1 1 3 2 4 4 3 4 4 4 2 8 13 12 13 14 6 5 2 1 1 1 1 1 3 3 3 3
4 1 2 2 2 2 2 1 1 2 2 2 1 1 2 2 2 3 4 4 4 4 4 4 3 7 12 11 13 13 6 6 1 2 1 1 3 2 4 5 4 3
3 4 3 3 3 2 0 2 3 3 2 2 2 3 3 3 4 4 4 3 4 4 4 3 3 8 10 11 11 13 4 5 2 2 4 5 5 8 8 7 6 5
3 3 2 2 1 2 3 4 3 3 3 2 1 2 2 2 3 2 3 4 5 4 4 4 3 8 9 11 11 12 2 2 3 5 6 7 8 8 8 6 5 5
1 0 0 1 3 4 4 4 3 2 3 1 1 2 2 2 3 3 3 3 5 5 4 3 2 5 9 10 11 13 2 1 4 6 7 7 7 7 6 6 5 5
1 1 2 3 4 5 4 2 1 1 2 1 2 2 3 3 2 2 3 4 3 4 2 3 3 4 8 10 10 14 2 5 4 6 6 6 6 6 5 4 6 10
3 3 4 4 4 3 1 1 2 2 2 1 2 1 3 2 2 3 4 3 3 3 7 3 2 3 7 10 11 6 9 4 6 6 6 5 5 5 4 4 4 6
3 4 4 3 2 0 0 2 1 1 2 1 2 1 2 2 2 3 3 4 3 3 5 2 1 2 5 10 13 6 13 7 5 6 6 5 4 3 3 3 3 3
Wind_Direction
253 255 317 318 320 324 328 335 334 341 336 342 344 339 339 329 333 338 340 342 342 339 337 338 337 337 334 333 335 334 331 328 332 329 320 276 257 249 248 244 240 237
240 231 258 257 269 274 267 278 311 326 326 334 334 332 331 334 327 340 337 340 340 339 336 336 338 335 336 335 331 331 329 331 329 333 331 328 303 264 253 248 245 240
223 219 230 221 232 236 235 239 249 276 310 313 325 331 336 334 332 335 335 339 340 337 337 337 336 337 338 337 334 329 327 326 327 327 329 324 324 320 283 258 248 242
224 214 212 218 213 213 217 212 240 225 255 317 323 329 336 327 334 333 336 341 339 337 335 336 335 338 338 338 338 333 329 326 321 321 319 318 321 320 324 317 278 253
214 223 218 214 215 205 203 207 224 219 224 228 279 309 324 331 337 335 337 341 337 337 337 333 334 337 338 339 337 334 331 328 326 323 321 317 315 323 318 320 319 305
228 217 219 213 210 201 209 213 219 214 215 214 239 269 286 321 327 332 337 338 337 338 333 332 334 335 341 337 337 332 329 326 322 325 324 326 324 326 318 318 317 314
229 225 227 221 211 209 210 217 216 208 206 206 216 260 246 310 313 326 338 334 335 335 332 333 335 337 339 337 335 329 326 318 321 326 328 328 330 325 323 322 314 310
235 233 232 221 213 215 213 217 210 202 203 199 211 244 215 264 280 312 330 331 332 330 330 331 332 334 336 336 331 327 325 323 322 324 323 323 320 318 312 312 307 301
235 236 231 226 221 224 219 216 209 198 198 191 216 220 226 239 223 310 322 326 323 321 326 327 329 329 330 330 323 320 319 318 316 317 318 315 313 310 307 301 303 310
238 240 235 233 230 230 225 220 205 196 194 191 214 209 223 231 190 258 307 307 307 314 320 323 324 321 324 323 314 311 308 308 308 307 302 301 300 296 299 319 345 1
241 241 238 238 236 235 230 221 204 195 190 193 203 209 214 203 248 227 252 282 295 305 316 322 317 322 321 316 310 301 298 297 298 297 298 297 300 326 351 347 351 20
241 242 240 239 238 236 232 222 202 187 191 202 190 199 197 219 224 248 225 273 285 291 301 306 314 318 312 308 305 300 295 291 289 290 294 299 300 343 348 350 358 23
243 243 240 240 239 240 237 218 200 189 183 194 186 172 191 223 236 231 259 267 284 286 290 293 311 309 305 303 299 296 290 287 288 289 294 294 304 2 9 359 8 34
248 245 244 244 247 250 240 216 196 185 179 160 137 167 208 232 247 246 270 272 281 284 281 277 290 303 301 297 293 289 287 285 280 278 278 289 310 24 18 24 41 42
256 260 256 256 257 254 236 205 167 127 110 131 144 219 229 255 225 264 296 303 294 287 283 276 277 287 289 289 292 289 282 275 275 271 272 232 85 8 24 42 53 52
277 277 272 265 264 257 202 131 114 123 137 165 206 220 231 249 273 292 308 297 299 290 282 282 274 275 282 286 284 272 267 272 300 359 32 30 41 14 21 62 53 49
289 280 275 274 263 140 137 143 139 144 162 185 200 220 238 251 264 298 296 295 285 282 291 286 276 274 286 298 291 290 292 46 343 29 42 36 38 36 27 79 60 52
297 289 284 282 125 136 118 109 122 152 186 213 215 243 246 195 290 275 280 277 278 289 292 273 271 283 301 301 295 293 305 99 22 39 52 0 30 48 71 108 92 70
295 278 212 131 127 124 136 139 157 193 226 236 252 247 235 272 276 279 274 282 285 290 292 277 262 291 305 300 296 295 307 97 22 24 68 347 347 40 96 104 109 93
271 210 120 113 105 104 91 125 190 244 244 250 256 274 267 278 285 280 282 286 278 277 284 267 269 283 300 297 298 295 312 93 33 43 58 24 0 10 83 70 55 56
37 45 58 57 61 74 207 248 260 275 263 270 258 262 274 269 273 283 278 275 282 287 279 265 259 291 299 300 300 298 341 95 72 43 43 39 40 61 62 58 44 45
42 56 92 134 192 233 264 274 261 261 276 288 289 288 279 274 285 259 269 286 292 289 276 265 271 297 308 302 300 297 2 111 94 66 67 64 51 62 58 49 41 32
19 77 157 257 272 281 284 283 281 292 290 267 272 280 279 298 277 277 281 288 293 290 263 238 255 301 314 308 302 302 306 115 80 80 83 76 67 57 50 34 29 25
228 205 253 279 281 280 288 296 297 314 276 276 268 280 293 279 282 298 302 290 286 306 275 195 256 293 319 315 313 309 32 98 89 86 84 80 74 60 43 28 15 18
271 271 277 284 289 286 276 280 292 275 273 281 275 278 278 289 307 317 294 292 297 286 299 248 214 323 321 319 315 349 98 78 91 86 81 72 70 61 37 21 8 360
290 286 288 286 274 241 261 255 257 301 306 297 305 299 301 309 301 296 289 284 288 288 284 265 137 353 313 325 327 86 100 93 67 89 84 80 74 74 52 18 352 329